Regional Weather Roundup
Issued by NWS Grand Forks, ND

Home | Current Version | Previous Version | Text Only | Print | Product List | Glossary Off
Versions: 1 2 3 4 5 6 7 8 9 10 11 12 13 14 15 16 17 18 19 20 21 22 23 24 25 26 27 28 29 30 31 32 33 34 35 36 37 38 39 40 41 42 43 44 45 46 47 48 49 50

000
ASUS43 KFGF 130131
RWRFGF
PRAIRIE TO PINES  WEATHER ROUNDUP
NATIONAL WEATHER SERVICE EASTERN NORTH DAKOTA/GRAND FORKS ND
700 PM CST FRI FEB 12 2016

 **SATELLITE DATA USED TO AUGMENT SKY COVER AT AUTOMATED STATIONS**
 *****  WEATHER ACROSS EASTERN NORTH DAKOTA  *****

CITY           SKY/WX    TMP DP  RH WIND       PRES   REMARKS
GRAND FORKS    CLOUDY    -2 -11  65 NW7       30.67F WCI -15
GRAND FRKS AFB CLOUDY    -6 -14  68 NW7       30.67S WCI -21
DEVILS LAKE    CLOUDY   -10 -15  78 CALM      30.62S
FARGO          CLOUDY    -2 -11  65 NW9       30.68S WCI -18
WAHPETON ARPT  CLOUDY    -2  -9  71 NW9       30.67S WCI -18
$$

 ***** WEATHER ACROSS CENTRAL AND WESTERN NORTH DAKOTA  *****

CITY           SKY/WX    TMP DP  RH WIND       PRES   REMARKS
BISMARCK       CLOUDY     8  -3  61 E8        30.57F WCI  -4
MINOT          CLOUDY     2  -8  63 E7        30.53F WCI -11
JAMESTOWN      CLOUDY    -3 -11  68 N5        30.61R WCI -13
MINOT AFB      CLOUDY    -3 -12  65 CALM      30.53F
GARRISON         N/A      7  -1  70 E8        30.51F WCI  -6
WILLISTON      CLOUDY    13   2  61 E9        30.44S WCI   1
DICKINSON      CLOUDY    10   2  69 SE13      30.39F WCI  -5
HETTINGER      CLOUDY    12   1  61 SE14      30.41F WCI  -3
$$

 *****  OTHER AIRPORT OBSERVATIONS IN OUR AREA  *****

CITY           SKY/WX    TMP DP  RH WIND       PRES   REMARKS
WALHALLA       FAIR      -4 -13  65 NW6       30.67S WCI -16
GRAFTON AIRPOR FAIR      -6 -13  71 N6        30.70S WCI -18
VALLEY CITY AR FAIR      -9 -15  77 NW8       30.65R WCI -26
CANDO          FAIR      -9 -13  84 CALM      30.63F
CAVALIER APRT  FAIR      -4 -11  71 N3        30.68S
GWINNER        FAIR      -4 N/A N/A N6        30.65R WCI -16
SHEYENNE NWR     N/A     -7 -16  65 N2        29.95S
ROLLA          FAIR     -18 -26  69 SW5       30.56F WCI -31
 ***** THE ABOVE OBSERVATIONS ARE NON NWS ARE NOT QUALITY
       CONTROLLED AND MAY MIS-REPORT RAIN FOR SNOW...
$$

  *****  WEATHER ACROSS NORTHERN MINNESOTA  *****

CITY           SKY/WX    TMP DP  RH WIND       PRES   REMARKS
FLAG ISLAND    CLOUDY   -11 -20  64 NW9       30.58S WCI -29
WARROAD        CLOUDY    -9 -18  64 W7        30.58F WCI -24
ROSEAU         CLOUDY    -9 -17  70 W6        30.61S WCI -23
HALLOCK        CLOUDY    -8 -15  71 N6        30.66F WCI -21
THF RVR FALLS  CLOUDY    -8 -24  45 NW8       30.63S WCI -23
BAUDETTE       CLOUDY    -8 -20  55 NW13      30.54F WCI -28
WASKISH        CLOUDY    -9 -18  64 W7        30.56S WCI -24
CROOKSTON      CLOUDY    -6 -11  77 N3        30.68S
STEPHEN NDAWN    N/A     -8 -15  71 N3          N/A
GREENBUSH NDAW   N/A    -13 -18  77 W5          N/A  WCI -25
$$
  *****  WEATHER ACROSS CENTRAL AND WEST MINNESOTA  *****

CITY           SKY/WX    TMP DP  RH WIND       PRES   REMARKS
FOSSTON          N/A    -11 -17  77 W6        30.61R WCI -25
BEMIDJI        CLOUDY   -10 -17  72 NW10      30.55R WCI -29
PARK RAPIDS    CLOUDY    -7 -16  65 NW10      30.53R WCI -25
ELBOW LAKE     FAIR      -2  -9  71 NW12      30.62S WCI -20
WADENA         CLOUDY    -8 -15  71 NW8       30.57R WCI -23
DETROIT LAKES  CLOUDY    -6 -11  77 NW8       30.60S WCI -21
MOORHEAD       CLOUDY    -2  -9  71 NW8       30.68S WCI -17
FERGUS FALLS   CLOUDY    -4 -11  71 N9        30.67F WCI -20
MORRIS MN      CLOUDY     0  -8  71 NW10      30.62R WCI -17
STAPLES        CLOUDY    -6 -15  65 NW13      30.56R WCI -25
$$
  *****  WEATHER ELSEWHERE ACROSS MINNESOTA  *****

CITY           SKY/WX    TMP DP  RH WIND       PRES   REMARKS
DULUTH         CLEAR     -2 -18  46 NW12      30.42R WCI -20
INTRNTL FALLS  CLOUDY    -8 -19  58 NW9       30.52R WCI -25
ELY            CLEAR     -8 -18  59 NW8G20    30.43R WCI -23
CLOQUET        CLEAR     -2 -18  46 NW10      30.46R WCI -19
WHEATON        CLOUDY    -4  -9  77 W6        30.68S WCI -16
BRAINERD       CLEAR      0 -16  46 NW13      30.53R WCI -18
HIBBING        CLEAR     -7 -18  59 NW14      30.46R WCI -28
ALEXANDRIA     CLOUDY    -3 -14  59 NW10      30.57R WCI -20
SAINT CLOUD    CLEAR      2 -10  57 NW13      30.55R WCI -15
MINNEAPOLIS    CLEAR      6 -11  45 NW12      30.54S WCI  -9
$$

  *****  WEATHER ACROSS SOUTH DAKOTA  *****

CITY           SKY/WX    TMP DP  RH WIND       PRES   REMARKS
SIOUX FALLS    CLOUDY     4  -6  63 N6        30.59R WCI  -7
BROOKINGS      CLOUDY     0  -7  72 N8        30.57S WCI -14
WATERTOWN      CLOUDY    -2 -11  65 N7        30.57R WCI -15
HURON          CLOUDY     5  -4  66 N7        30.64R WCI  -7
SISSETON         N/A     -6 -12  75 N8        30.64S WCI -21
ABERDEEN       MOCLDY     4  -7  60 N6        30.65R WCI  -7
MITCHELL       CLOUDY     9   0  67 N9        30.63S WCI  -4
PIERRE         CLOUDY    15   7  70 E13       30.55R WCI   1
MOBRIDGE       CLOUDY    12   4  70 E10       30.53S WCI  -1
RAPID CITY     CLOUDY    23  21  92 SE14      30.34F WCI  11
$$

  *****  SOME WEATHER IN NEARBY STATES *****

CITY           SKY/WX    TMP DP  RH WIND       PRES   REMARKS
GLASGOW MT     LGT SNOW  16  12  84 E24       30.24F FOG     WCI  -2
GREAT FALLS MT MOCLDY    51  33  50 SW18      30.00F
CHEYENNE WY    MOCLDY    40  27  59 S10       30.24S
SCOTTSBLUFF NE CLOUDY    34  30  85 SE15      30.30R WCI  24
OMAHA NE       CLOUDY    15   4  61 N12       30.62R WCI   2
DES MOINES IA  CLOUDY    11   0  61 NW10      30.57R WCI  -3
DAVENPORT IA   CLEAR     12   0  58 NW17G28   30.45R WCI  -5
CHICAGO IL     PTCLDY    15  -4  42 NW20G35   30.32R WCI  -2
EAU CLAIRE WI  CLEAR      3 -15  43 NW8       30.48R WCI -10
LA CROSSE WI   CLEAR      7 -10  46 N14       30.50R WCI -10
$$

  *****  SOME NATIONAL WEATHER *****

CITY           SKY/WX    TMP DP  RH WIND       PRES   REMARKS
LA GUARDIA NY  CLOUDY    25   5  42 W8        29.98F WCI  16
RALEIGH NC     CLOUDY    31  22  69 CALM      30.05R
ATLANTA GA     PTCLDY    53  30  41 NW17G23   30.11R
NEW ORLEANS LA PTCLDY    66  51  58 NW6       30.22R
OKLAHOMA CITY  CLEAR     49  30  48 NE14      30.37R
ALBUQUERQUE NM CLEAR     63  18  17 CALM      30.29R
SALT LAKE CITY CLOUDY    30  27  88 N10       30.35S FOG     WCI  21
LOS ANGELES CA PTCLDY    65  50  58 W10       30.05R
BOISE ID       CLOUDY    47  33  58 CALM      30.22F
SEATTLE WA     PTCLDY    55  45  68 S9        30.14S
$$

*** WEATHER ACROSS MANITOBA...SASKATCHEWAN AND ONTARIO ***
                ***ONTARIO***

CITY           SKY/WX    TMP DP  RH WIND       PRES   REMARKS
GERALDTON      FLURRIES -15 -20  76 W5        30.22S WCI -27
THUNDER BAY    CLEAR     -6 -17  59 W14       30.40R WCI -26
SIOUX LOOKOUT  CLEAR    -11 -18  70 NW13      30.41R WCI -32
TORONTO        LGT SNOW  16  12  86 NW24      29.88R VSB 3/4 WCI  -3
BIG TROUT LK   CLEAR    -17 -24  70 NW12      30.35R WCI -38
PICKLE LAKE    CRYSTALS -13 -24  58 NW12G17   30.31S WCI -33
DRYDEN         CLEAR    -11 -18  70 W10       30.44S WCI -30
KENORA         CLEAR    -11 -20  64 NW9       30.52R WCI -29
$$
                *** MANITOBA***

CITY           SKY/WX    TMP DP  RH WIND       PRES   REMARKS
BRANDON        PTCLDY   -13 -18  77 CALM      30.61F
DAUPHIN        CLEAR    -17 -26  63 SW3       30.62F
ISLAND LAKE    CLEAR    -15 -20  76 W12       30.51S WCI -36
PILOT MOUND      N/A    -11 -17  77 W2          N/A
THE PAS        PTCLDY   -13 -22  64 VRB2      30.60F
THOMPSON       CLEAR    -13 -18  77 W6        30.54F WCI -27
WINNIPEG       CLEAR    -13 -22  64 W9        30.68S WCI -31
LYNN LAKE      CLEAR    -15 -20  76 W6        30.50F WCI -29
CHURCHILL      CRYSTALS -17 -22  76 NW20      30.47S WCI -44
GILLAM         PTCLDY   -13 -22  64 W13       30.47S WCI -34
$$
                ***SASKATCHEWAN***

CITY           SKY/WX    TMP DP  RH WIND       PRES   REMARKS
ESTEVAN        CLOUDY     7  -4  61 E13G20    30.47S WCI  -9
KINDERSLEY     LGT SNOW  14  10  85 SE21G26   30.13F BLWGSNOWWCI  -4
LLOYDMINSTER   CLOUDY     5   0  78 SE20      30.16F WCI -15
PRINCE ALBERT  PTCLDY   -11 -20  64 E6        30.47F WCI -25
REGINA         MOCLDY     7  -2  66 SE17      30.41F WCI -12
YORKTON        MOCLDY   -11 -17  77 S7        30.53F WCI -26
N. BATTLEFORD  CLOUDY     3  -4  72 E23G30    30.30F WCI -19
LA RONGE       PTCLDY   -17 -24  70 NE3       30.46F
SASKATOON      MOCLDY     3  -4  72 E17       30.38F WCI -17
SWIFT CURRENT  LGT SNOW  12  10  92 SE20G28   30.14F VSB 1   WCI  -6
$$
NOTE: THESE ARE AUTOMATED STATIONS WITH LIMITED QUALITY CONTROL
      "FAIR" INDICATES FEW OR NO CLOUDS BELOW 12,000 FEET WITH NO
      SIGNIFICANT WEATHER AND/OR OBSTRUCTIONS TO VISIBILITY.
      SKY/WX - SKY CONDITION AND SIGNIFICANT WEATHER.
      TMP - AIR TEMPERATURE.    DP   - DEWPOINT TEMPERATURE.
      RH  - RELATIVE HUMIDITY.  PRES - PRESSURE.
      HX  - HEAT INDEX.         WCI  - WIND CHILL INDEX.
$



USA.gov is the U.S. government's official web portal to all federal, state and local government web resources and services.